Regional Weather Roundup
Issued by NWS

Home | Current Version | Previous Version | Graphics & Text | Print | Product List | Glossary On
Versions: 1 2 3 4 5 6 7 8 9 10 11 12 13 14 15 16 17 18 19 20 21 22 23 24 25 26 27 28
000
ASUS45 KSLC 050110
RWRUT

UTAH REGIONAL WEATHER ROUNDUP
NATIONAL WEATHER SERVICE SALT LAKE CITY UT
600 PM MST SUN DEC 04 2016

UTZ001>011-023>025-050200-

NORTHERN UTAH

CITY           SKY/WX    TMP DP  RH WIND       PRES   REMARKS
BRIGHAM CITY     N/A     39  22  49 NW8G21    29.87S WCI  33
HILL AFB       CLOUDY    37  21  52 SW15      29.87F WCI  28
LOGAN          CLOUDY   N/A N/A N/A N10       29.86F
OGDEN          CLOUDY    41  20  43 S10       29.88F
SALT LAKE CITY CLOUDY    41  21  44 SE12      29.88F
TOOELE VALLEY  CLOUDY    41  27  56 E3        29.89F
WENDOVER       CLOUDY    36  18  48 CALM      29.90S
HEBER CITY     CLOUDY    32  21  64 E3        29.93F
WEST JORDAN    CLOUDY    41  24  50 S18       29.90F

$$

UTZ011>015-024>027-050200-

CENTRAL/NORTHEAST UTAH

CITY           SKY/WX    TMP DP  RH WIND       PRES   REMARKS
PROVO AIRPORT  CLOUDY    34  25  69 CALM      29.96F
MOAB/CANYONLAN PTCLDY    33  15  47 NW6       30.04S WCI  28
DELTA          CLOUDY    37  18  44 N5        29.95F WCI  34
PRICE          PTCLDY    29  13  51 E6        30.02F WCI  23
ROOSEVELT      CLOUDY    30  18  59 CALM      29.99F
VERNAL         CLOUDY    27  16  63 W5        29.98S WCI  22

$$

UTZ013>016-019>022-027-050200-

SOUTHERN UTAH

CITY           SKY/WX    TMP DP  RH WIND       PRES   REMARKS
BRYCE CANYON   MOCLDY    26  13  57 SW6       30.07S WCI  19
CEDAR CITY     MOCLDY    37  14  38 S9        30.01S WCI  30
MILFORD        MOCLDY    45  16  31 S16       29.96F
ST GEORGE      CLOUDY    48  18  29 CALM      30.05F
HANKSVILLE     PTCLDY    34  16  47 N9        30.08R WCI  26
KANAB          MOCLDY    34  16  47 CALM      30.09F
BLANDING       CLEAR     33  11  40 CALM      30.15F

$$

REGIONAL REPORTS     COLORADO/ARIZONA

CITY           SKY/WX    TMP DP  RH WIND       PRES   REMARKS
CRAIG, CO      CLOUDY    30  14  51 E5        29.95F WCI  25
GRAND JUNCTION CLOUDY    31  20  63 CALM      30.06S
RIFLE, CO      CLOUDY    33  18  53 CALM      30.04F
MONTROSE, CO   CLOUDY    29  17  61 CALM      30.07F
CORTEZ, CO     CLOUDY    27  21  78 SE3       30.10R
COLORADO CITY    N/A     37  19  48 CALM      30.08S
PAGE, AZ       PTCLDY    40  14  34 CALM      30.05F
GRAND CANYON   PTCLDY    29  22  75 CALM      30.11R
KINGMAN, AZ    PTCLDY    49  10  20 CALM      30.02S
FLAGSTAFF, AZ  PTCLDY    36  13  38 SW3       30.09S

$$

REGIONAL REPORTS    NEVADA/IDAHO/WYOMING

CITY           SKY/WX    TMP DP  RH WIND       PRES   REMARKS
LAS VEGAS, NV  MOCLDY    56  14  19 CALM      30.00F
ELY, NY        MOCLDY    36  17  46 VRB3      29.98F
ELKO, NV       CLOUDY    38  22  52 W3        29.91F
POCATELLO, ID  LGT RAIN  40  28  62 S26G35    29.76F WCI  29
BURLEY, ID     LGT RAIN  46  28  49 SW25G41   29.76F
FORT BRIDGER,  MOCLDY    35  23  62 SW18G29   29.89F WCI  24
EVANSTON, WY   CLOUDY    33  20  58 SW14G22   29.87F WCI  23
ROCK SPRINGS,  CLOUDY    35  18  49 W28G35    29.82F WCI  22
KEMMERER, WY     N/A     32  21  64 SW18      29.84S WCI  20

$$




USA.gov is the U.S. government's official web portal to all federal, state and local government web resources and services.